Location: Flynn Junction
(40.1314°N, 99.5162°W)
Time: 21:49:51
(UTC+00:00)

PSLV R/B - Pass Details

Date: 29 October 2020
Orbit: 567 x 599 km, 98.2° (Epoch: 01 December)

Event Time Altitude Azimuth Distance (km) Brightness Sun altitude
Rises 12:19:29 0° 179° (S) 2,821 7.6 -9.2°
Reaches altitude 10° 12:21:41 10° 185° (S) 1,927 6.7 -8.8°
Maximum altitude 12:25:44 48° 260° (W) 782 4.2 -8.0°
Drops below altitude 10° 12:29:51 10° 336° (NNW) 1,947 6.3 -7.3°
Sets 12:32:05 0° 342° (NNW) 2,854 7.2 -6.9°
